Regional Weather Roundup
Issued by NWS

Home | Current Version | Previous Version | Graphics & Text | Print | Product List | Glossary On
Versions: 1 2 3 4 5 6 7 8 9 10 11 12 13 14 15 16 17 18 19 20 21 22 23 24 25 26 27 28 29 30 31 32 33 34 35 36 37 38 39 40 41 42 43 44 45 46 47 48 49 50
000
ASUS43 KMKX 240110
RWRWI

WISCONSIN REGIONAL WEATHER ROUNDUP
NATIONAL WEATHER SERVICE MILWAUKEE/SULLIVAN WI
700 PM CST MON JAN 23 2017

NOTE: "FAIR" INDICATES FEW OR NO CLOUDS BELOW 12,000 FEET WITH NO
SIGNIFICANT WEATHER AND/OR OBSTRUCTIONS TO VISIBILITY.

WIZ001-002-006>008-014>016-023>028-240200-
NORTHWEST WISCONSIN

CITY           SKY/WX    TMP DP  RH WIND       PRES   REMARKS
SUPERIOR ARPT  CLOUDY    35  33  92 W5        29.81S WCI  31
ASHLAND        CLOUDY    34  33  96 SW7       29.81R WCI  28
HAYWARD        CLOUDY    35  32  88 CALM      29.80R
SIREN          CLOUDY    33  33  98 W3        29.83R
CUMBERLAND     CLOUDY    32  32 100 CALM      29.81S
RICE LAKE      CLOUDY    34  32  94 W3        29.83S
CHETEK         CLOUDY    32  32 100 CALM      29.82S
LADYSMITH      CLOUDY    35  34  97 W3        29.81S
EAU CLAIRE     CLOUDY    34  33  96 W3        29.82R FOG
MENOMONIE        N/A    N/A N/A N/A MISG        N/A
NEW RICHMOND   CLOUDY    32  32  99 CALM      29.83S FOG
OSCEOLA        CLOUDY    33  33 100 CALM      29.86S
$$

WIZ003>005-009-010-017-018-240200-
NORTH CENTRAL WISCONSIN

CITY           SKY/WX    TMP DP  RH WIND       PRES   REMARKS
MANITOWISH WTR CLOUDY    33  33 100 CALM      29.77S FOG
ARBOR VITAE    DRIZZLE   37  36  96 CALM      29.77S
WOODRUFF       DRIZZLE   37  36  96 CALM      29.77S
RHINELANDER    FOG       35  35 100 NW3       29.77S VSB 3/4
EAGLE RIVER    CLOUDY    34  34 100 NW3       29.76S
LAND O LAKES   FOG       35  35 100 CALM      29.78R VSB 1
PHILLIPS       CLOUDY    33  33 100 CALM      29.77S
TOMAHAWK       CLOUDY    34  33  96 CALM      29.79R FOG
MEDFORD        CLOUDY    33  33 100 W5        29.78S FOG     WCI  28
MERRILL        CLOUDY    35  35 100 CALM        N/A
$$

WIZ029-030-035-036-043>047-240200-
CENTRAL WISCONSIN

CITY           SKY/WX    TMP DP  RH WIND       PRES   REMARKS
WAUSAU         CLOUDY    34  34 100 W5        29.78R FOG     WCI  30
MOSINEE        FOG       34  34 100 W6        29.79S VSB 1/2 WCI  29
MARSHFIELD     CLOUDY    34  32  92 NW7       29.78S FOG     WCI  28
STEVENS POINT  CLOUDY    33  33 100 W3        29.80R FOG
WAUPACA        CLOUDY    38  34  88 CALM      29.80R
WAUTOMA        CLOUDY    36  34  92 W6        29.81R WCI  31
WISC RAPIDS    CLOUDY    35  35 100 NW5       29.81R WCI  31
CAMP DOUGLAS   CLOUDY    34  34 100 NW5       29.81S WCI  30
$$

WIZ011>013-019>022-031-037>040-048>050-240200-
NORTHEAST WISCONSIN

CITY           SKY/WX    TMP DP  RH WIND       PRES   REMARKS
ANTIGO         CLOUDY    34  33  95 NW5       29.76S WCI  30
SHAWANO        CLOUDY    37  35  92 CALM      29.78S
OCONTO         CLOUDY    36  35  99 CALM      29.78S VSB 3/4
STURGEON BAY   FOG       34  34 100 N3        29.79R VSB 1/4
GREEN BAY      CLOUDY    36  35  96 CALM      29.78R
MANITOWOC      CLOUDY    37  34  89 MISG      29.79R
APPLETON       CLOUDY    36  36 100 W7        29.77R WCI  30
CLINTONVILLE   CLOUDY    36  34  93 W5        29.78S WCI  32
OSHKOSH        CLOUDY    36  33  89 W6        29.79R WCI  31
$$

WIZ032>034-041-042-053>061-240200-
SOUTHWEST WISCONSIN

CITY           SKY/WX    TMP DP  RH WIND       PRES   REMARKS
LA CROSSE      CLOUDY    37  33  85 N3        29.83S
SPARTA         CLOUDY    32  32 100 CALM      29.84S FOG
VIROQUA        CLOUDY    33  33 100 CALM      29.81S
BOSCOBEL       CLOUDY    37  32  82 CALM      29.84S
PRAIRIE DU CHI CLOUDY    34  31  90 CALM      29.84R
PLATTEVILLE    CLOUDY    35  33  92 N7        29.82R WCI  29
$$

WIZ056-057-062-063-064-067-068-240200-
SOUTH CENTRAL WISCONSIN

CITY           SKY/WX    TMP DP  RH WIND       PRES   REMARKS
REEDSBURG      CLOUDY    35  35 100 CALM      29.81S
BARABOO/DELLS  CLOUDY    35  33  93 CALM      29.81S
LONE ROCK      CLOUDY    37  32  82 NW3       29.83R
MINERAL POINT  CLOUDY    36  34  93 NW3       29.81R
MADISON        CLOUDY    37  34  89 NW5       29.81S WCI  33
MIDDLETON      CLOUDY    37  37  99 NW7       29.81S WCI  32
WATERTOWN      CLOUDY    36  36 100 NW6       29.80R WCI  31
MONROE         CLOUDY    36  32  87 NW6       29.80R WCI  31
JANESVILLE     CLOUDY    39  37  93 NW7       29.80R WCI  34
$$

WIZ051-052-058>065-066-070>072-240200-
SOUTHEAST WISCONSIN

CITY           SKY/WX    TMP DP  RH WIND       PRES   REMARKS
MILWAUKEE      CLOUDY    40  35  83 NW9       29.79R WCI  34
WAUKESHA       CLOUDY    36  34  93 NW9       29.80R FOG     WCI  29
MILWAUKEE/TIMM CLOUDY    37  34  87 NW7       29.80R WCI  32
RACINE         CLOUDY    39  34  82 NW8       29.79S WCI  33
KENOSHA        CLOUDY    39  35  86 NW9       29.79R WCI  33
FOND DU LAC    CLOUDY    36  32  85 W7        29.79R WCI  30
SHEBOYGAN      CLOUDY    36  33  89 NW6       29.78S WCI  31
WEST BEND      CLOUDY    36  36 100 CALM      29.79R
JUNEAU         CLOUDY    35  34  95 W3        29.81R
$$

LSZ147-162-240200-
LAKE SUPERIOR

STATION/POSITION TIME  TEMP    WIND        PRES    WAVE
                       AIR SEA DIR/SP/G            HT/PER
                 (UTC) (F)     (DEG/KT/KT) (MB)    (FT/S)
DEVILS ISLAND    0000   35     240/  5/  5 1009.6S
PORT WING        0030   36     240/  6/  9 1009.5S
SAXON HARBOR     0030   34      CALM  /  2 1009.1S
$$

LMZ867-665-643>646-240200-
LAKE MICHIGAN

STATION/POSITION TIME  TEMP    WIND        PRES    WAVE
                       AIR SEA DIR/SP/G            HT/PER
                 (UTC) (F)     (DEG/KT/KT) (MB)    (FT/S)
NORTHPORT PIER   0040   33     320/  4/  6 1008.5R
SISTER BAY       0035   33     360/  6/  7   N/A
KEWAUNEE LAKESHO 0030   36     300/  1/  3 1008.1R
SHEBOYGAN LAKESH 0100   37     310/  4/  5 1008.9R
PORT WASHINGTON  0040   39     300/  5/  8 1009.5S
KENOSHA   LAKESH 0000   40     310/  8/ 13 1008.5
$$

TC  - TEMPERATURE IN CELSIUS
VSB - VISIBILITY IN STATUTE MILES
WCI - WIND CHILL INDEX
HX  - HEAT INDEX





USA.gov is the U.S. government's official web portal to all federal, state and local government web resources and services.